Погода Мыс Болванский

Погода Мыс Болванский : погода сейчас, прогноз погоды и архив. Всё, что Вы хотите узнать о погоде Мыс Болванский!

Поиск расширенной информации на нашем сайте:

Полезная информация: Эта компания taganrog.delinet.ru придала наглядности наработки взято отсюда

Другие новости

Новости СМИ2

Главная страница сайта

Новости сайта

03.07.2017

Напоминаем, что на нашем специализированном сайте Метеоцентр.Азия вы можете получить высокодетализированные автоматические прогнозы погоды по пунктам России, СНГ и мира в авиационном формате (включающие направление и скорость ветра, видимость, явления погоды, количество и форму облачности, нижнюю и верхнюю границу облачности).

Рекомендуем: Где купить металлический шкаф litpolmebel.com.

Погода Мыс Болванский - сегодня

Время (UTC), дата Ветер
(°,м/с) 
Видим.   Явления Облачность Т
(°С)
Тd
(°С)
f(%) Тe
(°С)
Pmin
(гПа)
dP
(гПа)
Po
(мм)
O2
(г/м3)
Тmin Tmax R s Состояние
почвы
09 09.12.17 080 (В) 7{10}  2000 м  слаб. ливневой снег  10/10 540 м кучево-дожд. 
[Cb cap]
-7.4 -8.8 90 -13  1015.5  761  316           
12 09.12.17 070 (В) 2000 м  слаб. ливневой снег  10/10 570 м кучево-дожд. 
[Cb cap]
-8 -10 85 -12  1016  0.4  761  317           
15 09.12.17 060 (СВ) 2000 м  слаб. ливневой снег  10/10 540 м кучево-дожд. 
[Cb cap]
-8.3 -9.6 90 -12  1016.4  0.4  761  317    -6.4  0.9     
18 09.12.17 040 (СВ) 4000 м  слаб. снег{ливн. осадки}  10/10 240 м 
[Frnb|Ns]
-8.9 -10 92 -13  1016.5  0.1  761  318           
21 09.12.17 020 (С) 10 км  {снег}  10/10 700 м 
[Sc]
-9.1 -10.5 90 -14  1016.9  0.4  762  319           
00 10.12.17 010 (С) 7-10{10}  2000 м  слаб. ливневой снег  10/10 270 м кучево-дожд. 
[Cb cap]
-8.8 -10.4 88 -14  1017.1  0.2  762  318           
03 10.12.17 360 (С) 6{10}  10 км  позёмок{ливн. осадки}  10/0 средняя 
[Ac und]
-9.6 -11.4 87 -15  1017.9  0.8  762  320  -9.6    0.7  10  неравномерный
сухой снег
100% 
06 10.12.17 330 (СЗ) 20000 м  {ливн. осадки}  3/3 600 м 
[Sc]
-11.8 -12.8 92 -17  1018.7  0.8  763  323  -11.8         
09 10.12.17 350 (С) 10 км  позёмок  6/6 300 м 
[St]
-12.5 -13.2 94 -18  1020  1.3  764  324           
12 10.12.17 330 (СЗ) 10 км    8/0 средняя 
[Ac trans]
-13.8 -14.5 94 -19  1021.5  1.4  765  326           
15 10.12.17 280 (З) 10 км    10/0 средняя 
[Ac und]
-11.6 -13.6 85 -16  1022.3  0.9  766  323    -9.6       
18 10.12.17 230 (ЮЗ) 10 км    10/10 570 м 
[Sc]
-10.3 -11.5 91 -12  1022.6  0.3  766  322           
21 10.12.17 230 (ЮЗ) 10 км    10/0 средняя 
[Ac und]
-10.5 -11.4 93 -16  1023.4  0.7  766  322           
00 11.12.17 250 (З) 10 км  позёмок  8/0 средняя 
[Ac trans]
-10.1 -11 93 -15  1024.1  0.8  767  322           
03 11.12.17 230 (ЮЗ) 8-10{11}  10 км  позёмок  10/0 средняя, верхняя 
[As op|Cs]
-7.6 -7.9 98 -13  1024.4  0.3  767  319  -12.3      10  неравномерный
сухой снег
100% 
06 11.12.17 220 (ЮЗ) 30-12{12}  10 км  позёмок  10/10 600 м 
[Ac und]
-9 -9.6 95 -21  1024.2  -0.2  767  321           
09 11.12.17 220 (ЮЗ) 11-13{13}  10 км  позёмок  9/0 средняя 
[Ac trans]
-10 -11.4 89 -18  1023.5  -0.7  767  322           
12 11.12.17 220 (ЮЗ) 11-13{16}  10 км  позёмок  10/10 1020 м 
[Sc]
-11 -13 85 -19  1022.7  -0.8  766  323           
15 11.12.17 210 (ЮЗ) 6{13}  2000 м  слаб. ливневой снег  10/10 750 м кучево-дожд. 
[Cb cap]
-10 -11.9 86 -15  1022.2  -0.5  766  321    -7.7  0.0     
18 11.12.17 200 (Ю) 2000 м  слаб. ливневой снег  10/10 630 м кучево-дожд. 
[Cb cap]
-9.4 -10.6 91 -13  1021.4  -0.8  765  320           
21 11.12.17 180 (Ю) 2000 м  слаб. ливневой снег  10/10 600 м кучево-дожд. 
[Cb cap]
-8.4 -9.2 94 -12  1020.9  -0.5  765  319           
00 12.12.17 190 (Ю) 10 км  в посл. час ливневой снег  10/10 700 м 
[Sc]
-7.2 -8.1 93 -11  1020.3  -0.6  764  317           
03 12.12.17 220 (ЮЗ) 8-11{11}  10 км  позёмок  10/0 средняя 
[Ac und]
-6 -7 93 -12  1018.6  -1.6  763  315  -10.5    0.5  10  неравномерный
сухой снег
100% 
06 12.12.17 160 (Ю) 4{13}  10 км    9/8 450 м средняя 
[Sc|Ac trans]
-5.1 -5.8 95 -8  1018.5  -0.2  763  314           
09 12.12.17 230 (ЮЗ) 10-13{14}  10 км  позёмок  10/0 средняя 
[Ac und]
-4.6 -4.9 98 -11  1017.8  -0.7  762  313           
Время (UTC), дата Ветер
(°,м/с) 
Видим.   Явления Облачность Т
(°С)
Тd
(°С)
f(%) Тe
(°С)
Pmin
(гПа)
dP
(гПа)
Po
(мм)
O2
(г/м3)
Тmin Tmax R s Состояние
почвы

Для получения пояснительной информации подведите курсор к названию столбца.

ПОГОДА Мыс Болванский - архив

Всё, что Вы хотите узнать о погоде Мыс Болванский - удобно и подробно!

Выберите нужную дату (начиная с 1 января 2015* года) и нажмите кнопку "Найти".
Будут отображены архивные сводки погоды по пункту Мыс Болванский, начиная с указанной даты.


Отображать данные в формате CSV (для использования в таблицах Excel)


Внимание! Наш архив погоды предназначен исключительно для личного некоммерческого использования в познавательных целях. Если Вам необходимы официальные справки о состоянии погоды (для производственных, юридических, коммерческих и т.п. целей), обращайтесь в органы Росгидромета.

*Примечание: данная дата относится к архиву по метеостанциям СССР (Россия, СНГ, Балтия).
Архив по метеостанциям Зарубежной Европы и Азии (кроме Китая) хранится 10 дней, по другим регионам земного шара (Китай, Африка, Америка, Австралия, Океания) - 1 день.

Мыс Болванский - район местоположения метеостанции


Название, широта, долгота, высота метеостанции:
Мыс Болванский 70.4°ш. 59.1°д. 13 м над ур. моря [Российская Федерация]

Дополнительная информация

В oтличие oт бoльшинства пoгoдных сайтoв мы публикуем пoдрoбную метеoинфoрмацию в детальнoм прoфессиoнальнoм фoрмате.

Характеристики температуры и влажнoсти вoздуха измеряются на высoте 2 м в тени вдали oт зданий и деревьев.
Скoрoсть ветра измеряется на высoте 10 м (на урoвне рoста челoвека скoрoсть ветра ниже в 1.5-2 раза). Если метеoстанция нахoдится в гoрoде или в лесу, тo скoрoсть ветра занижена на 2-4 м/с пo сравнению с oткрытым местoм. Скoрoсть ветра над акватoриями крупных рек и oзёр, а также на вершинах хoлмoв на 2-5 м/с выше, чем в oбычных услoвиях.
Атмoсфернoе давление в разных тoчках местнoсти мoжет значительнo oтличаться oт давления на метеoстанции, в зависимoсти oт услoвий рельефа (при пoдъёме на 10 м давление пoнижается примернo на 1 мм рт.ст.).